Time,TemperatureF,DewpointF,PressureIn,WindDirection,WindDirectionDegrees,WindSpeedMPH,WindSpeedGustMPH,Humidity,HourlyPrecipIn,Conditions,Clouds,dailyrainin,SoftwareType,DateUTC
2013-04-02 00:01:00,50.0,38.0,29.99,West,275,28.0,39.0,62,0.00,,,0.00,,2013-04-02 07:01:00,
2013-04-02 00:11:00,50.0,38.0,29.99,West,275,28.0,39.0,62,0.00,,,0.00,,2013-04-02 07:11:00,
2013-04-02 00:21:00,50.0,38.0,29.98,WNW,285,27.0,43.0,64,0.00,,,0.00,,2013-04-02 07:21:00,
2013-04-02 00:31:00,50.0,39.0,29.99,WNW,290,25.0,40.0,65,0.00,,,0.00,,2013-04-02 07:31:00,
2013-04-02 00:41:00,50.0,39.0,29.99,WNW,290,25.0,40.0,65,0.00,,,0.00,,2013-04-02 07:41:00,
2013-04-02 00:52:00,50.0,39.0,29.99,WNW,288,27.0,44.0,65,0.00,,,0.00,,2013-04-02 07:52:00,
2013-04-02 01:01:00,50.0,38.0,29.99,WNW,288,29.0,48.0,63,0.00,,,0.00,,2013-04-02 08:01:00,
2013-04-02 01:11:00,50.0,38.0,29.99,WNW,288,29.0,48.0,63,0.00,,,0.00,,2013-04-02 08:11:00,
2013-04-02 01:22:00,51.0,38.0,30.01,WNW,300,25.0,43.0,61,0.00,,,0.00,,2013-04-02 08:22:00,
2013-04-02 01:31:00,50.0,37.0,30.01,WNW,296,24.0,37.0,60,0.00,,,0.00,,2013-04-02 08:31:00,
2013-04-02 01:42:00,50.0,37.0,30.01,WNW,296,24.0,37.0,60,0.00,,,0.00,,2013-04-02 08:42:00,
2013-04-02 01:52:00,50.0,37.0,30.01,WNW,289,19.0,36.0,61,0.00,,,0.00,,2013-04-02 08:52:00,
2013-04-02 02:11:00,50.0,37.0,30.01,WNW,295,19.0,30.0,60,0.00,,,0.00,,2013-04-02 09:11:00,
2013-04-02 02:22:00,51.0,38.0,30.01,WNW,301,19.0,36.0,60,0.00,,,0.00,,2013-04-02 09:22:00,
2013-04-02 02:32:00,50.0,37.0,30.01,NW,304,20.0,32.0,61,0.00,,,0.00,,2013-04-02 09:32:00,
2013-04-02 02:42:00,50.0,37.0,30.01,NW,304,20.0,32.0,61,0.00,,,0.00,,2013-04-02 09:42:00,
2013-04-02 02:52:00,50.0,38.0,30.01,WNW,290,27.0,36.0,62,0.00,,,0.00,,2013-04-02 09:52:00,
2013-04-02 03:02:00,50.0,39.0,30.00,WNW,287,24.0,35.0,65,0.00,,,0.00,,2013-04-02 10:02:00,
2013-04-02 03:12:00,50.0,39.0,30.00,WNW,287,24.0,35.0,65,0.00,,,0.00,,2013-04-02 10:12:00,
2013-04-02 03:22:00,50.0,38.0,30.01,WNW,291,22.0,37.0,64,0.00,,,0.00,,2013-04-02 10:22:00,
2013-04-02 03:32:00,50.0,39.0,30.02,WNW,301,16.0,38.0,65,0.00,,,0.00,,2013-04-02 10:32:00,
2013-04-02 03:41:00,50.0,39.0,30.02,WNW,301,16.0,38.0,65,0.00,,,0.00,,2013-04-02 10:41:00,
2013-04-02 03:52:00,50.0,39.0,30.01,WNW,303,20.0,37.0,66,0.00,,,0.00,,2013-04-02 10:52:00,
2013-04-02 04:02:00,49.0,39.0,30.03,WNW,299,18.0,29.0,67,0.00,,,0.00,,2013-04-02 11:02:00,
2013-04-02 04:11:00,49.0,39.0,30.03,WNW,299,18.0,29.0,67,0.00,,,0.00,,2013-04-02 11:11:00,
2013-04-02 04:22:00,49.0,39.0,30.03,WNW,287,24.0,35.0,67,0.00,,,0.00,,2013-04-02 11:22:00,
2013-04-02 04:32:00,50.0,39.0,30.02,WNW,289,27.0,40.0,67,0.00,,,0.00,,2013-04-02 11:32:00,
2013-04-02 04:42:00,50.0,39.0,30.02,WNW,289,27.0,40.0,67,0.00,,,0.00,,2013-04-02 11:42:00,
2013-04-02 04:52:00,49.0,39.0,30.03,WNW,290,25.0,35.0,68,0.00,,,0.00,,2013-04-02 11:52:00,
2013-04-02 05:01:00,49.0,39.0,30.03,WNW,292,21.0,35.0,67,0.00,,,0.00,,2013-04-02 12:01:00,
2013-04-02 05:11:00,49.0,39.0,30.03,WNW,292,21.0,35.0,67,0.00,,,0.00,,2013-04-02 12:11:00,
2013-04-02 05:22:00,50.0,39.0,30.03,WNW,284,24.0,35.0,67,0.00,,,0.00,,2013-04-02 12:22:00,
2013-04-02 05:32:00,49.0,39.0,30.04,WNW,293,22.0,37.0,67,0.00,,,0.00,,2013-04-02 12:32:00,
2013-04-02 05:41:00,49.0,39.0,30.04,WNW,293,22.0,37.0,67,0.00,,,0.00,,2013-04-02 12:41:00,
2013-04-02 05:52:00,49.0,39.0,30.03,WNW,289,25.0,38.0,67,0.00,,,0.00,,2013-04-02 12:52:00,
2013-04-02 06:01:00,49.0,39.0,30.05,WNW,293,20.0,35.0,67,0.00,,,0.00,,2013-04-02 13:01:00,
2013-04-02 06:21:00,49.0,39.0,30.04,WNW,291,24.0,34.0,67,0.00,,,0.00,,2013-04-02 13:21:00,
2013-04-02 06:32:00,49.0,39.0,30.02,WNW,294,22.0,39.0,67,0.00,,,0.00,,2013-04-02 13:32:00,
2013-04-02 06:42:00,49.0,39.0,30.02,WNW,294,22.0,39.0,67,0.00,,,0.00,,2013-04-02 13:42:00,
2013-04-02 06:52:00,49.0,39.0,30.04,WNW,296,25.0,35.0,67,0.00,,,0.00,,2013-04-02 13:52:00,
2013-04-02 07:02:00,49.0,38.0,30.03,WNW,299,24.0,34.0,66,0.00,,,0.00,,2013-04-02 14:02:00,
2013-04-02 07:11:00,49.0,38.0,30.03,WNW,299,24.0,34.0,66,0.00,,,0.00,,2013-04-02 14:11:00,
2013-04-02 07:22:00,49.0,38.0,30.04,WNW,296,21.0,31.0,66,0.00,,,0.00,,2013-04-02 14:22:00,
2013-04-02 07:32:00,50.0,39.0,30.04,NW,304,19.0,31.0,66,0.00,,,0.00,,2013-04-02 14:32:00,
2013-04-02 07:42:00,50.0,39.0,30.04,NW,304,19.0,31.0,66,0.00,,,0.00,,2013-04-02 14:42:00,
2013-04-02 07:52:00,50.0,39.0,30.06,WNW,299,26.0,32.0,65,0.00,,,0.00,,2013-04-02 14:52:00,
2013-04-02 08:01:00,51.0,39.0,30.06,WNW,298,23.0,33.0,64,0.00,,,0.00,,2013-04-02 15:01:00,
2013-04-02 08:11:00,51.0,39.0,30.06,WNW,298,23.0,33.0,64,0.00,,,0.00,,2013-04-02 15:11:00,
2013-04-02 08:21:00,51.0,39.0,30.06,WNW,298,23.0,30.0,63,0.00,,,0.00,,2013-04-02 15:21:00,
2013-04-02 08:33:00,52.0,39.0,30.06,WNW,293,19.0,31.0,60,0.00,,,0.00,,2013-04-02 15:33:00,
2013-04-02 08:42:00,52.0,39.0,30.06,WNW,293,19.0,31.0,60,0.00,,,0.00,,2013-04-02 15:42:00,
2013-04-02 08:55:00,53.0,39.0,30.07,WNW,293,21.0,29.0,58,0.00,,,0.00,,2013-04-02 15:55:00,
2013-04-02 09:02:00,54.0,39.0,30.07,WNW,296,21.0,26.0,57,0.00,,,0.00,,2013-04-02 16:02:00,
2013-04-02 09:12:00,54.0,39.0,30.07,WNW,296,21.0,26.0,57,0.00,,,0.00,,2013-04-02 16:12:00,
2013-04-02 09:23:00,55.0,38.0,30.07,WNW,299,16.0,26.0,52,0.00,,,0.00,,2013-04-02 16:23:00,
2013-04-02 09:32:00,56.0,39.0,30.08,West,265,14.0,21.0,52,0.00,,,0.00,,2013-04-02 16:32:00,
2013-04-02 09:42:00,56.0,39.0,30.08,West,265,14.0,21.0,52,0.00,,,0.00,,2013-04-02 16:42:00,
2013-04-02 09:53:00,57.0,39.0,30.07,West,276,10.0,20.0,50,0.00,,,0.00,,2013-04-02 16:53:00,
2013-04-02 10:02:00,58.0,39.0,30.09,WSW,237,14.0,22.0,49,0.00,,,0.00,,2013-04-02 17:02:00,
2013-04-02 10:12:00,58.0,39.0,30.09,WSW,237,14.0,22.0,49,0.00,,,0.00,,2013-04-02 17:12:00,
2013-04-02 10:23:00,58.0,40.0,30.10,WSW,240,15.0,26.0,51,0.00,,,0.00,,2013-04-02 17:23:00,
2013-04-02 10:32:00,59.0,39.0,30.10,WSW,256,15.0,26.0,47,0.00,,,0.00,,2013-04-02 17:32:00,
2013-04-02 10:42:00,59.0,39.0,30.10,WSW,256,15.0,26.0,47,0.00,,,0.00,,2013-04-02 17:42:00,
2013-04-02 10:54:00,60.0,41.0,30.10,WSW,240,15.0,27.0,50,0.00,,,0.00,,2013-04-02 17:54:00,
2013-04-02 11:02:00,60.0,40.0,30.09,SW,230,17.0,24.0,47,0.00,,,0.00,,2013-04-02 18:02:00,
2013-04-02 11:12:00,60.0,40.0,30.09,SW,230,17.0,24.0,47,0.00,,,0.00,,2013-04-02 18:12:00,
2013-04-02 11:22:00,61.0,40.0,30.09,SW,230,15.0,26.0,46,0.00,,,0.00,,2013-04-02 18:22:00,
2013-04-02 11:32:00,61.0,39.0,30.09,SW,233,18.0,23.0,44,0.00,,,0.00,,2013-04-02 18:32:00,
2013-04-02 11:42:00,61.0,39.0,30.09,SW,233,18.0,23.0,44,0.00,,,0.00,,2013-04-02 18:42:00,
2013-04-02 11:54:00,62.0,40.0,30.09,SW,231,17.0,22.0,44,0.00,,,0.00,,2013-04-02 18:54:00,
2013-04-02 12:02:00,62.0,39.0,30.09,SW,236,18.0,23.0,42,0.00,,,0.00,,2013-04-02 19:02:00,
2013-04-02 12:12:00,62.0,39.0,30.09,SW,236,18.0,23.0,42,0.00,,,0.00,,2013-04-02 19:12:00,
2013-04-02 12:21:00,64.0,39.0,30.08,WSW,252,15.0,22.0,40,0.00,,,0.00,,2013-04-02 19:21:00,
2013-04-02 12:31:00,64.0,40.0,30.07,WSW,245,19.0,26.0,42,0.00,,,0.00,,2013-04-02 19:31:00,
2013-04-02 12:42:00,64.0,40.0,30.07,WSW,245,19.0,26.0,42,0.00,,,0.00,,2013-04-02 19:42:00,
2013-04-02 12:52:00,63.0,40.0,30.07,West,274,13.0,25.0,43,0.00,,,0.00,,2013-04-02 19:52:00,
2013-04-02 13:02:00,64.0,42.0,30.06,WSW,254,14.0,22.0,44,0.00,,,0.00,,2013-04-02 20:02:00,
2013-04-02 13:11:00,64.0,42.0,30.06,WSW,254,14.0,22.0,44,0.00,,,0.00,,2013-04-02 20:11:00,
2013-04-02 13:21:00,64.0,41.0,30.05,SW,231,19.0,23.0,43,0.00,,,0.00,,2013-04-02 20:21:00,
2013-04-02 13:32:00,66.0,41.0,30.05,WSW,237,18.0,22.0,40,0.00,,,0.00,,2013-04-02 20:32:00,
2013-04-02 13:42:00,66.0,41.0,30.05,WSW,237,18.0,22.0,40,0.00,,,0.00,,2013-04-02 20:42:00,
2013-04-02 13:53:00,66.0,41.0,30.05,WSW,237,18.0,22.0,40,0.00,,,0.00,,2013-04-02 20:53:00,
2013-04-02 14:02:00,66.0,40.0,30.04,SW,231,14.0,22.0,38,0.00,,,0.00,,2013-04-02 21:02:00,
2013-04-02 14:11:00,66.0,40.0,30.04,SW,231,14.0,22.0,38,0.00,,,0.00,,2013-04-02 21:11:00,
2013-04-02 14:22:00,66.0,38.0,30.04,WSW,256,14.0,21.0,36,0.00,,,0.00,,2013-04-02 21:22:00,
2013-04-02 14:32:00,68.0,34.0,30.03,West,262,14.0,21.0,28,0.00,,,0.00,,2013-04-02 21:32:00,
2013-04-02 14:42:00,68.0,34.0,30.03,West,262,14.0,21.0,28,0.00,,,0.00,,2013-04-02 21:42:00,
2013-04-02 14:55:00,67.0,38.0,30.03,West,267,9.0,25.0,35,0.00,,,0.00,,2013-04-02 21:55:00,
2013-04-02 15:02:00,66.0,40.0,30.02,West,265,14.0,21.0,39,0.00,,,0.00,,2013-04-02 22:02:00,
2013-04-02 15:12:00,66.0,40.0,30.02,West,265,14.0,21.0,39,0.00,,,0.00,,2013-04-02 22:12:00,
2013-04-02 15:22:00,65.0,44.0,30.03,West,274,14.0,23.0,46,0.00,,,0.00,,2013-04-02 22:22:00,
2013-04-02 15:32:00,63.0,44.0,30.02,West,270,19.0,29.0,49,0.00,,,0.00,,2013-04-02 22:32:00,
2013-04-02 15:42:00,63.0,44.0,30.02,West,270,19.0,29.0,49,0.00,,,0.00,,2013-04-02 22:42:00,
2013-04-02 15:53:00,62.0,43.0,30.01,West,278,18.0,27.0,50,0.00,,,0.00,,2013-04-02 22:53:00,
2013-04-02 16:02:00,63.0,44.0,30.02,West,279,15.0,25.0,49,0.00,,,0.00,,2013-04-02 23:02:00,
2013-04-02 16:12:00,62.0,43.0,30.01,WNW,283,8.0,18.0,50,0.00,,,0.00,,2013-04-02 23:12:00,
2013-04-02 16:22:00,62.0,43.0,30.01,WNW,283,8.0,18.0,50,0.00,,,0.00,,2013-04-02 23:22:00,
2013-04-02 16:32:00,64.0,42.0,30.00,WNW,282,12.0,22.0,45,0.00,,,0.00,,2013-04-02 23:32:00,
2013-04-02 16:42:00,64.0,42.0,30.00,WNW,282,12.0,22.0,45,0.00,,,0.00,,2013-04-02 23:42:00,
2013-04-02 16:53:00,64.0,42.0,30.00,WNW,291,16.0,23.0,45,0.00,,,0.00,,2013-04-02 23:53:00,
2013-04-02 17:01:00,63.0,42.0,30.01,WNW,283,19.0,27.0,47,0.00,,,0.00,,2013-04-03 00:01:00,
2013-04-02 17:12:00,63.0,42.0,30.01,WNW,283,19.0,27.0,47,0.00,,,0.00,,2013-04-03 00:12:00,
2013-04-02 17:22:00,62.0,43.0,30.01,West,280,20.0,30.0,49,0.00,,,0.00,,2013-04-03 00:22:00,
2013-04-02 17:32:00,61.0,42.0,30.00,West,280,18.0,29.0,50,0.00,,,0.00,,2013-04-03 00:32:00,
2013-04-02 17:43:00,61.0,42.0,30.00,West,280,18.0,29.0,50,0.00,,,0.00,,2013-04-03 00:43:00,
2013-04-02 17:54:00,60.0,42.0,30.01,West,279,23.0,35.0,52,0.00,,,0.00,,2013-04-03 00:54:00,
2013-04-02 18:02:00,59.0,42.0,30.00,WNW,284,18.0,33.0,53,0.00,,,0.00,,2013-04-03 01:02:00,
2013-04-02 18:11:00,59.0,42.0,30.00,WNW,284,18.0,33.0,53,0.00,,,0.00,,2013-04-03 01:11:00,
2013-04-02 18:21:00,59.0,42.0,30.01,WNW,292,19.0,31.0,54,0.00,,,0.00,,2013-04-03 01:21:00,
2013-04-02 18:32:00,58.0,42.0,30.00,WNW,294,20.0,29.0,56,0.00,,,0.00,,2013-04-03 01:32:00,
2013-04-02 18:42:00,58.0,42.0,30.00,WNW,294,20.0,29.0,56,0.00,,,0.00,,2013-04-03 01:42:00,
2013-04-02 18:53:00,57.0,43.0,30.01,West,281,22.0,30.0,59,0.00,,,0.00,,2013-04-03 01:53:00,
2013-04-02 19:12:00,56.0,42.0,30.01,WNW,289,22.0,34.0,60,0.00,,,0.00,,2013-04-03 02:12:00,
2013-04-02 19:22:00,55.0,43.0,30.02,WNW,285,24.0,32.0,63,0.00,,,0.00,,2013-04-03 02:22:00,
2013-04-02 19:32:00,55.0,43.0,30.01,WNW,293,25.0,33.0,63,0.00,,,0.00,,2013-04-03 02:32:00,
2013-04-02 19:42:00,55.0,43.0,30.01,WNW,293,25.0,33.0,63,0.00,,,0.00,,2013-04-03 02:42:00,
2013-04-02 19:53:00,55.0,43.0,30.01,WNW,294,26.0,42.0,63,0.00,,,0.00,,2013-04-03 02:53:00,
2013-04-02 20:02:00,55.0,43.0,30.01,WNW,294,26.0,42.0,63,0.00,,,0.00,,2013-04-03 03:02:00,
2013-04-02 20:12:00,55.0,43.0,30.01,WNW,294,26.0,42.0,63,0.00,,,0.00,,2013-04-03 03:12:00,
2013-04-02 20:22:00,54.0,42.0,30.01,WNW,290,27.0,38.0,63,0.00,,,0.00,,2013-04-03 03:22:00,
2013-04-02 20:38:00,54.0,42.0,30.00,WNW,292,31.0,43.0,63,0.00,,,0.00,,2013-04-03 03:38:00,
2013-04-02 20:44:00,54.0,42.0,30.00,WNW,292,31.0,43.0,63,0.00,,,0.00,,2013-04-03 03:44:00,
2013-04-02 20:53:00,54.0,41.0,30.01,WNW,294,26.0,37.0,62,0.00,,,0.00,,2013-04-03 03:53:00,
2013-04-02 21:02:00,55.0,41.0,30.01,WNW,295,23.0,35.0,58,0.00,,,0.00,,2013-04-03 04:02:00,
2013-04-02 21:12:00,55.0,41.0,30.01,WNW,295,23.0,35.0,58,0.00,,,0.00,,2013-04-03 04:12:00,
2013-04-02 21:23:00,55.0,40.0,30.02,WNW,303,23.0,29.0,56,0.00,,,0.00,,2013-04-03 04:23:00,
2013-04-02 21:32:00,56.0,40.0,30.04,NW,310,12.0,30.0,54,0.00,,,0.00,,2013-04-03 04:32:00,
2013-04-02 21:42:00,56.0,40.0,30.04,NW,310,12.0,30.0,54,0.00,,,0.00,,2013-04-03 04:42:00,
2013-04-02 21:53:00,57.0,37.0,30.04,NW,316,11.0,18.0,47,0.00,,,0.00,,2013-04-03 04:53:00,
2013-04-02 22:02:00,58.0,36.0,30.05,West,263,7.0,19.0,43,0.00,,,0.00,,2013-04-03 05:02:00,
2013-04-02 22:12:00,58.0,36.0,30.05,West,263,7.0,19.0,43,0.00,,,0.00,,2013-04-03 05:12:00,
2013-04-02 22:22:00,56.0,37.0,30.06,WNW,292,10.0,18.0,48,0.00,,,0.00,,2013-04-03 05:22:00,
2013-04-02 22:32:00,55.0,37.0,30.06,NW,305,8.0,13.0,50,0.00,,,0.00,,2013-04-03 05:32:00,
2013-04-02 22:41:00,55.0,37.0,30.06,NW,305,8.0,13.0,50,0.00,,,0.00,,2013-04-03 05:41:00,
2013-04-02 22:52:00,55.0,37.0,30.06,West,276,7.0,13.0,51,0.00,,,0.00,,2013-04-03 05:52:00,
2013-04-02 23:01:00,53.0,38.0,30.06,WSW,242,17.0,28.0,57,0.00,,,0.00,,2013-04-03 06:01:00,
2013-04-02 23:12:00,53.0,38.0,30.06,WSW,242,17.0,28.0,57,0.00,,,0.00,,2013-04-03 06:12:00,
2013-04-02 23:21:00,53.0,39.0,30.09,WSW,240,22.0,32.0,59,0.00,,,0.00,,2013-04-03 06:21:00,
2013-04-02 23:31:00,53.0,39.0,30.09,SW,235,21.0,32.0,58,0.00,,,0.00,,2013-04-03 06:31:00,
2013-04-02 23:42:00,53.0,39.0,30.09,SW,235,21.0,32.0,58,0.00,,,0.00,,2013-04-03 06:42:00,
2013-04-02 23:52:00,53.0,38.0,30.09,WSW,237,21.0,29.0,57,0.00,,,0.00,,2013-04-03 06:52:00,